date,time,SUV Intensity [MED/Hr],UV Index,Daily total [MED],Since Last [MED]
01/09/2023,00:00:45,0.000,0.0,0.0,0.0
01/09/2023,00:01:45,0.000,0.0,0.0,0.0
01/09/2023,00:02:46,0.000,0.0,0.0,0.0
01/09/2023,00:03:45,0.000,0.0,0.0,0.0
01/09/2023,00:04:45,0.000,0.0,0.0,0.0
01/09/2023,00:05:45,0.000,0.0,0.0,0.0
01/09/2023,00:06:46,0.001,0.0,0.0,0.0
01/09/2023,00:07:45,0.000,0.0,0.0,0.0
01/09/2023,00:08:46,0.000,0.0,0.0,0.0
01/09/2023,00:09:45,0.000,0.0,0.0,0.0
01/09/2023,00:10:46,-0.001,0.0,0.0,0.0
01/09/2023,00:11:45,0.000,0.0,0.0,0.0
01/09/2023,00:12:45,0.000,0.0,0.0,0.0
01/09/2023,00:13:47,0.000,0.0,0.0,0.0
01/09/2023,00:14:45,0.000,0.0,0.0,0.0
01/09/2023,00:15:43,0.000,0.0,0.0,0.0
01/09/2023,00:16:43,0.000,0.0,0.0,0.0
01/09/2023,00:17:46,0.000,0.0,0.0,0.0
01/09/2023,00:18:45,0.000,0.0,0.0,0.0
01/09/2023,00:19:46,0.001,0.0,0.0,0.0
01/09/2023,00:20:45,0.000,0.0,0.0,0.0
01/09/2023,00:21:46,0.000,0.0,0.0,0.0
01/09/2023,00:22:46,0.000,0.0,0.0,0.0
01/09/2023,00:23:45,0.000,0.0,0.0,0.0
01/09/2023,00:24:45,0.000,0.0,0.0,0.0
01/09/2023,00:25:43,0.000,0.0,0.0,0.0
01/09/2023,00:26:43,0.000,0.0,0.0,0.0
01/09/2023,00:27:46,0.000,0.0,0.0,0.0
01/09/2023,00:28:45,0.000,0.0,0.0,0.0
01/09/2023,00:29:46,0.000,0.0,0.0,0.0
01/09/2023,00:30:45,0.000,0.0,0.0,0.0
01/09/2023,00:31:46,0.000,0.0,0.0,0.0
01/09/2023,00:32:45,0.000,0.0,0.0,0.0
01/09/2023,00:33:45,0.000,0.0,0.0,0.0
01/09/2023,00:34:46,0.000,0.0,0.0,0.0
01/09/2023,00:35:45,0.000,0.0,0.0,0.0
01/09/2023,00:36:45,0.000,0.0,0.0,0.0
01/09/2023,00:37:45,0.000,0.0,0.0,0.0
01/09/2023,00:38:46,0.000,0.0,0.0,0.0
01/09/2023,00:39:45,0.000,0.0,0.0,0.0
01/09/2023,00:40:46,0.000,0.0,0.0,0.0
01/09/2023,00:41:45,0.000,0.0,0.0,0.0
01/09/2023,00:42:45,-0.001,0.0,0.0,0.0
01/09/2023,00:43:45,0.000,0.0,0.0,0.0
01/09/2023,00:44:46,0.000,0.0,0.0,0.0
01/09/2023,00:45:45,0.000,0.0,0.0,0.0
01/09/2023,00:46:45,0.000,0.0,0.0,0.0
01/09/2023,00:47:45,0.000,0.0,0.0,0.0
01/09/2023,00:48:46,0.000,0.0,0.0,0.0
01/09/2023,00:49:46,0.000,0.0,0.0,0.0
01/09/2023,00:50:45,0.000,0.0,0.0,0.0
01/09/2023,00:51:46,0.000,0.0,0.0,0.0
01/09/2023,00:52:45,0.000,0.0,0.0,0.0
01/09/2023,00:53:46,0.000,0.0,0.0,0.0
01/09/2023,00:54:45,0.000,0.0,0.0,0.0
01/09/2023,00:55:45,-0.000,0.0,0.0,0.0
01/09/2023,00:56:45,0.000,0.0,0.0,0.0
01/09/2023,00:57:45,0.000,0.0,0.0,0.0
01/09/2023,00:58:45,0.000,0.0,0.0,0.0
01/09/2023,00:59:45,-0.001,0.0,0.0,0.0
01/09/2023,01:00:45,0.000,0.0,0.0,0.0
01/09/2023,01:01:45,0.000,0.0,0.0,0.0
01/09/2023,01:02:45,0.000,0.0,0.0,0.0
01/09/2023,01:03:46,0.000,0.0,0.0,0.0
01/09/2023,01:04:45,0.000,0.0,0.0,0.0
01/09/2023,01:05:45,0.000,0.0,0.0,0.0
01/09/2023,01:06:45,0.000,0.0,0.0,0.0
01/09/2023,01:07:45,0.000,0.0,0.0,0.0
01/09/2023,01:08:43,0.000,0.0,0.0,0.0
01/09/2023,01:09:44,0.000,0.0,0.0,0.0
01/09/2023,01:10:46,0.000,0.0,0.0,0.0
01/09/2023,01:11:45,0.000,0.0,0.0,0.0
01/09/2023,01:12:45,-0.000,0.0,0.0,0.0
01/09/2023,01:13:46,0.000,0.0,0.0,0.0
01/09/2023,01:14:45,0.000,0.0,0.0,0.0
01/09/2023,01:15:46,0.000,0.0,0.0,0.0
01/09/2023,01:16:45,0.000,0.0,0.0,0.0
01/09/2023,01:17:45,0.000,0.0,0.0,0.0
01/09/2023,01:18:43,0.000,0.0,0.0,0.0
01/09/2023,01:19:43,0.000,0.0,0.0,0.0
01/09/2023,01:20:45,0.000,0.0,0.0,0.0
01/09/2023,01:21:45,0.000,0.0,0.0,0.0
01/09/2023,01:22:46,0.000,0.0,0.0,0.0
01/09/2023,01:23:45,0.000,0.0,0.0,0.0
01/09/2023,01:24:46,0.001,0.0,0.0,0.0
01/09/2023,01:25:45,0.000,0.0,0.0,0.0
01/09/2023,01:26:45,0.000,0.0,0.0,0.0
01/09/2023,01:27:45,0.000,0.0,0.0,0.0
01/09/2023,01:28:45,0.000,0.0,0.0,0.0
01/09/2023,01:29:45,0.000,0.0,0.0,0.0
01/09/2023,01:30:46,0.000,0.0,0.0,0.0
01/09/2023,01:31:45,0.000,0.0,0.0,0.0
01/09/2023,01:32:45,0.000,0.0,0.0,0.0
01/09/2023,01:33:45,0.000,0.0,0.0,0.0
01/09/2023,01:34:45,0.000,0.0,0.0,0.0
01/09/2023,01:35:46,0.000,0.0,0.0,0.0
01/09/2023,01:36:45,0.000,0.0,0.0,0.0
01/09/2023,01:37:45,0.000,0.0,0.0,0.0
01/09/2023,01:38:43,0.000,0.0,0.0,0.0
01/09/2023,01:39:44,0.000,0.0,0.0,0.0
01/09/2023,01:40:46,0.000,0.0,0.0,0.0
01/09/2023,01:41:45,0.000,0.0,0.0,0.0
01/09/2023,01:42:45,0.000,0.0,0.0,0.0
01/09/2023,01:43:45,0.000,0.0,0.0,0.0
01/09/2023,01:44:45,0.000,0.0,0.0,0.0
01/09/2023,01:45:43,0.000,0.0,0.0,0.0
01/09/2023,01:46:43,0.000,0.0,0.0,0.0
01/09/2023,01:47:46,0.000,0.0,0.0,0.0
01/09/2023,01:48:45,0.000,0.0,0.0,0.0
01/09/2023,01:49:46,-0.000,0.0,0.0,0.0
01/09/2023,01:50:45,0.000,0.0,0.0,0.0
01/09/2023,01:51:45,0.000,0.0,0.0,0.0
01/09/2023,01:52:45,0.000,0.0,0.0,0.0
01/09/2023,01:53:46,0.000,0.0,0.0,0.0
01/09/2023,01:54:44,0.000,0.0,0.0,0.0
01/09/2023,01:55:44,0.000,0.0,0.0,0.0
01/09/2023,01:56:46,0.000,0.0,0.0,0.0
01/09/2023,01:57:45,-0.000,0.0,0.0,0.0
01/09/2023,01:58:45,0.000,0.0,0.0,0.0
01/09/2023,01:59:45,0.000,0.0,0.0,0.0
01/09/2023,02:00:43,0.000,0.0,0.0,0.0
01/09/2023,02:01:44,0.000,0.0,0.0,0.0
01/09/2023,02:02:46,0.000,0.0,0.0,0.0
01/09/2023,02:03:45,0.000,0.0,0.0,0.0
01/09/2023,02:04:45,0.000,0.0,0.0,0.0
01/09/2023,02:05:45,0.000,0.0,0.0,0.0
01/09/2023,02:06:46,0.000,0.0,0.0,0.0
01/09/2023,02:07:45,0.000,0.0,0.0,0.0
01/09/2023,02:08:46,0.000,0.0,0.0,0.0
01/09/2023,02:09:45,0.000,0.0,0.0,0.0
01/09/2023,02:10:45,0.000,0.0,0.0,0.0
01/09/2023,02:11:45,0.000,0.0,0.0,0.0
01/09/2023,02:12:46,0.000,0.0,0.0,0.0
01/09/2023,02:13:45,0.000,0.0,0.0,0.0
01/09/2023,02:14:46,0.000,0.0,0.0,0.0
01/09/2023,02:15:45,0.000,0.0,0.0,0.0
01/09/2023,02:16:45,0.000,0.0,0.0,0.0
01/09/2023,02:17:45,0.000,0.0,0.0,0.0
01/09/2023,02:18:46,0.000,0.0,0.0,0.0
01/09/2023,02:19:45,0.000,0.0,0.0,0.0
01/09/2023,02:20:45,0.000,0.0,0.0,0.0
01/09/2023,02:21:46,0.000,0.0,0.0,0.0
01/09/2023,02:22:45,0.000,0.0,0.0,0.0
01/09/2023,02:23:46,0.000,0.0,0.0,0.0
01/09/2023,02:24:45,0.000,0.0,0.0,0.0
01/09/2023,02:25:45,0.001,0.0,0.0,0.0
01/09/2023,02:26:45,0.000,0.0,0.0,0.0
01/09/2023,02:27:46,0.000,0.0,0.0,0.0
01/09/2023,02:28:45,0.000,0.0,0.0,0.0
01/09/2023,02:29:46,0.000,0.0,0.0,0.0
01/09/2023,02:30:45,0.000,0.0,0.0,0.0
01/09/2023,02:31:45,0.000,0.0,0.0,0.0
01/09/2023,02:32:45,0.000,0.0,0.0,0.0
01/09/2023,02:33:46,-0.000,0.0,0.0,0.0
01/09/2023,02:34:45,-0.001,0.0,0.0,0.0
01/09/2023,02:35:46,0.000,0.0,0.0,0.0
01/09/2023,02:36:45,-0.001,0.0,0.0,0.0
01/09/2023,02:37:45,0.000,0.0,0.0,0.0
01/09/2023,02:38:45,0.000,0.0,0.0,0.0
01/09/2023,02:39:45,0.000,0.0,0.0,0.0
01/09/2023,02:40:46,0.001,0.0,0.0,0.0
01/09/2023,02:41:45,0.000,0.0,0.0,0.0
01/09/2023,02:42:46,0.000,0.0,0.0,0.0
01/09/2023,02:43:45,0.000,0.0,0.0,0.0
01/09/2023,02:44:46,0.000,0.0,0.0,0.0
01/09/2023,02:45:46,0.000,0.0,0.0,0.0
01/09/2023,02:46:45,0.000,0.0,0.0,0.0
01/09/2023,02:47:45,0.000,0.0,0.0,0.0
01/09/2023,02:48:45,0.000,0.0,0.0,0.0
01/09/2023,02:49:46,0.000,0.0,0.0,0.0
01/09/2023,02:50:45,0.000,0.0,0.0,0.0
01/09/2023,02:51:46,0.000,0.0,0.0,0.0
01/09/2023,02:52:45,0.000,0.0,0.0,0.0
01/09/2023,02:53:45,0.000,0.0,0.0,0.0
01/09/2023,02:54:46,0.000,0.0,0.0,0.0
01/09/2023,02:55:45,0.000,0.0,0.0,0.0
01/09/2023,02:56:45,0.000,0.0,0.0,0.0
01/09/2023,02:57:46,0.000,0.0,0.0,0.0
01/09/2023,02:58:45,0.000,0.0,0.0,0.0
01/09/2023,02:59:46,0.000,0.0,0.0,0.0
01/09/2023,03:00:45,0.000,0.0,0.0,0.0
01/09/2023,03:01:46,0.000,0.0,0.0,0.0
01/09/2023,03:02:45,0.000,0.0,0.0,0.0
01/09/2023,03:03:45,0.000,0.0,0.0,0.0
01/09/2023,03:04:45,0.000,0.0,0.0,0.0
01/09/2023,03:05:46,0.000,0.0,0.0,0.0
01/09/2023,03:06:45,0.000,0.0,0.0,0.0
01/09/2023,03:07:45,0.000,0.0,0.0,0.0
01/09/2023,03:08:45,0.000,0.0,0.0,0.0
01/09/2023,03:09:46,0.000,0.0,0.0,0.0
01/09/2023,03:10:46,0.000,0.0,0.0,0.0
01/09/2023,03:11:46,0.000,0.0,0.0,0.0
01/09/2023,03:12:46,0.000,0.0,0.0,0.0
01/09/2023,03:13:46,0.000,0.0,0.0,0.0
01/09/2023,03:14:45,0.001,0.0,0.0,0.0
01/09/2023,03:15:46,0.000,0.0,0.0,0.0
01/09/2023,03:16:46,0.000,0.0,0.0,0.0
01/09/2023,03:17:46,-0.001,0.0,0.0,0.0
01/09/2023,03:18:46,0.000,0.0,0.0,0.0
01/09/2023,03:19:46,0.000,0.0,0.0,0.0
01/09/2023,03:20:45,0.000,0.0,0.0,0.0
01/09/2023,03:21:46,0.001,0.0,0.0,0.0
01/09/2023,03:22:45,0.001,0.0,0.0,0.0
01/09/2023,03:23:45,0.000,0.0,0.0,0.0
01/09/2023,03:24:45,0.000,0.0,0.0,0.0
01/09/2023,03:25:46,0.000,0.0,0.0,0.0
01/09/2023,03:26:46,0.000,0.0,0.0,0.0
01/09/2023,03:27:46,0.000,0.0,0.0,0.0
01/09/2023,03:28:45,0.000,0.0,0.0,0.0
01/09/2023,03:29:46,0.000,0.0,0.0,0.0
01/09/2023,03:30:45,0.000,0.0,0.0,0.0
01/09/2023,03:31:45,0.000,0.0,0.0,0.0
01/09/2023,03:32:46,0.000,0.0,0.0,0.0
01/09/2023,03:33:46,0.000,0.0,0.0,0.0
01/09/2023,03:34:46,0.000,0.0,0.0,0.0
01/09/2023,03:35:45,0.000,0.0,0.0,0.0
01/09/2023,03:36:46,0.000,0.0,0.0,0.0
01/09/2023,03:37:45,0.000,0.0,0.0,0.0
01/09/2023,03:38:45,0.000,0.0,0.0,0.0
01/09/2023,03:39:46,0.000,0.0,0.0,0.0
01/09/2023,03:40:45,0.000,0.0,0.0,0.0
01/09/2023,03:41:46,0.000,0.0,0.0,0.0
01/09/2023,03:42:45,0.000,0.0,0.0,0.0
01/09/2023,03:43:46,0.000,0.0,0.0,0.0
01/09/2023,03:44:46,0.000,0.0,0.0,0.0
01/09/2023,03:45:46,0.000,0.0,0.0,0.0
01/09/2023,03:46:46,0.000,0.0,0.0,0.0
01/09/2023,03:47:46,0.000,0.0,0.0,0.0
01/09/2023,03:48:45,0.000,0.0,0.0,0.0
01/09/2023,03:49:45,0.001,0.0,0.0,0.0
01/09/2023,03:50:45,0.000,0.0,0.0,0.0
01/09/2023,03:51:46,0.000,0.0,0.0,0.0
01/09/2023,03:52:45,0.000,0.0,0.0,0.0
01/09/2023,03:53:45,0.000,0.0,0.0,0.0
01/09/2023,03:54:45,0.000,0.0,0.0,0.0
01/09/2023,03:55:46,0.000,0.0,0.0,0.0
01/09/2023,03:56:45,0.000,0.0,0.0,0.0
01/09/2023,03:57:45,0.000,0.0,0.0,0.0
01/09/2023,03:58:46,0.000,0.0,0.0,0.0
01/09/2023,03:59:45,0.000,0.0,0.0,0.0
01/09/2023,04:00:46,0.000,0.0,0.0,0.0
01/09/2023,04:01:45,0.000,0.0,0.0,0.0
01/09/2023,04:02:45,0.000,0.0,0.0,0.0
01/09/2023,04:03:46,0.000,0.0,0.0,0.0
01/09/2023,04:04:46,0.000,0.0,0.0,0.0
01/09/2023,04:05:45,0.000,0.0,0.0,0.0
01/09/2023,04:06:45,0.000,0.0,0.0,0.0
01/09/2023,04:07:46,0.000,0.0,0.0,0.0
01/09/2023,04:08:45,0.000,0.0,0.0,0.0
01/09/2023,04:09:46,0.000,0.0,0.0,0.0
01/09/2023,04:10:45,0.000,0.0,0.0,0.0
01/09/2023,04:11:46,0.000,0.0,0.0,0.0
01/09/2023,04:12:45,0.000,0.0,0.0,0.0
01/09/2023,04:13:45,0.000,0.0,0.0,0.0
01/09/2023,04:14:46,0.000,0.0,0.0,0.0
01/09/2023,04:15:46,0.000,0.0,0.0,0.0
01/09/2023,04:16:45,0.000,0.0,0.0,0.0
01/09/2023,04:17:45,0.000,0.0,0.0,0.0
01/09/2023,04:18:46,0.000,0.0,0.0,0.0
01/09/2023,04:19:46,0.000,0.0,0.0,0.0
01/09/2023,04:20:44,0.000,0.0,0.0,0.0
01/09/2023,04:21:44,0.000,0.0,0.0,0.0
01/09/2023,04:22:46,0.000,0.0,0.0,0.0
01/09/2023,04:23:46,0.000,0.0,0.0,0.0
01/09/2023,04:24:45,0.000,0.0,0.0,0.0
01/09/2023,04:25:46,0.000,0.0,0.0,0.0
01/09/2023,04:26:45,0.000,0.0,0.0,0.0
01/09/2023,04:27:46,0.000,0.0,0.0,0.0
01/09/2023,04:28:46,0.000,0.0,0.0,0.0
01/09/2023,04:29:46,0.000,0.0,0.0,0.0
01/09/2023,04:30:46,0.000,0.0,0.0,0.0
01/09/2023,04:31:46,0.000,0.0,0.0,0.0
01/09/2023,04:32:46,0.000,0.0,0.0,0.0
01/09/2023,04:33:45,0.000,0.0,0.0,0.0
01/09/2023,04:34:46,0.000,0.0,0.0,0.0
01/09/2023,04:35:46,0.000,0.0,0.0,0.0
01/09/2023,04:36:45,0.000,0.0,0.0,0.0
01/09/2023,04:37:46,0.000,0.0,0.0,0.0
01/09/2023,04:38:45,0.001,0.0,0.0,0.0
01/09/2023,04:39:45,0.000,0.0,0.0,0.0
01/09/2023,04:40:46,0.000,0.0,0.0,0.0
01/09/2023,04:41:45,0.000,0.0,0.0,0.0
01/09/2023,04:42:46,0.000,0.0,0.0,0.0
01/09/2023,04:43:45,0.000,0.0,0.0,0.0
01/09/2023,04:44:46,0.000,0.0,0.0,0.0
01/09/2023,04:45:45,0.000,0.0,0.0,0.0
01/09/2023,04:46:46,0.000,0.0,0.0,0.0
01/09/2023,04:47:45,0.000,0.0,0.0,0.0
01/09/2023,04:48:46,0.000,0.0,0.0,0.0
01/09/2023,04:49:45,0.000,0.0,0.0,0.0
01/09/2023,04:50:46,0.000,0.0,0.0,0.0
01/09/2023,04:51:45,0.000,0.0,0.0,0.0
01/09/2023,04:52:46,0.000,0.0,0.0,0.0
01/09/2023,04:53:46,0.000,0.0,0.0,0.0
01/09/2023,04:54:46,0.000,0.0,0.0,0.0
01/09/2023,04:55:45,0.000,0.0,0.0,0.0
01/09/2023,04:56:46,0.000,0.0,0.0,0.0
01/09/2023,04:57:45,0.001,0.0,0.0,0.0
01/09/2023,04:58:46,0.000,0.0,0.0,0.0
01/09/2023,04:59:45,0.000,0.0,0.0,0.0
01/09/2023,05:00:45,0.000,0.0,0.0,0.0
01/09/2023,05:01:45,0.000,0.0,0.0,0.0
01/09/2023,05:02:46,0.001,0.0,0.0,0.0
01/09/2023,05:03:46,0.000,0.0,0.0,0.0
01/09/2023,05:04:46,0.000,0.0,0.0,0.0
01/09/2023,05:05:45,0.000,0.0,0.0,0.0
01/09/2023,05:06:46,0.000,0.0,0.0,0.0
01/09/2023,05:07:45,0.001,0.0,0.0,0.0
01/09/2023,05:08:46,0.000,0.0,0.0,0.0
01/09/2023,05:09:46,0.000,0.0,0.0,0.0
01/09/2023,05:10:46,0.000,0.0,0.0,0.0
01/09/2023,05:11:45,0.000,0.0,0.0,0.0
01/09/2023,05:12:46,0.000,0.0,0.0,0.0
01/09/2023,05:13:45,0.001,0.0,0.0,0.0
01/09/2023,05:14:46,0.000,0.0,0.0,0.0
01/09/2023,05:15:46,0.000,0.0,0.0,0.0
01/09/2023,05:16:46,0.001,0.0,0.0,0.0
01/09/2023,05:17:46,0.001,0.0,0.0,0.0
01/09/2023,05:18:45,0.001,0.0,0.0,0.0
01/09/2023,05:19:46,0.001,0.0,0.0,0.0
01/09/2023,05:20:46,0.001,0.0,0.0,0.0
01/09/2023,05:21:46,0.000,0.0,0.0,0.0
01/09/2023,05:22:45,0.000,0.0,0.0,0.0
01/09/2023,05:23:46,0.001,0.0,0.0,0.0
01/09/2023,05:24:46,0.000,0.0,0.0,0.0
01/09/2023,05:25:46,0.001,0.0,0.0,0.0
01/09/2023,05:26:45,0.001,0.0,0.0,0.0
01/09/2023,05:27:45,0.002,0.0,0.0,0.0
01/09/2023,05:28:46,0.002,0.0,0.0,0.0
01/09/2023,05:29:46,0.001,0.0,0.0,0.0
01/09/2023,05:30:46,0.001,0.0,0.0,0.0
01/09/2023,05:31:46,0.002,0.0,0.0,0.0
01/09/2023,05:32:45,0.001,0.0,0.0,0.0
01/09/2023,05:33:46,0.002,0.0,0.0,0.0
01/09/2023,05:34:45,0.002,0.0,0.0,0.0
01/09/2023,05:35:46,0.002,0.0,0.0,0.0
01/09/2023,05:36:46,0.002,0.0,0.0,0.0
01/09/2023,05:37:46,0.002,0.0,0.0,0.0
01/09/2023,05:38:46,0.003,0.0,0.0,0.0
01/09/2023,05:39:45,0.002,0.0,0.0,0.0
01/09/2023,05:40:44,0.003,0.0,0.0,0.0
01/09/2023,05:41:44,0.003,0.0,0.0,0.0
01/09/2023,05:42:46,0.003,0.0,0.0,0.0
01/09/2023,05:43:45,0.004,0.0,0.0,0.0
01/09/2023,05:44:46,0.005,0.0,0.0,0.0
01/09/2023,05:45:46,0.004,0.0,0.0,0.0
01/09/2023,05:46:46,0.006,0.0,0.0,0.0
01/09/2023,05:47:46,0.007,0.0,0.0,0.0
01/09/2023,05:48:46,0.008,0.0,0.0,0.0
01/09/2023,05:49:46,0.008,0.0,0.0,0.0
01/09/2023,05:50:46,0.009,0.0,0.0,0.0
01/09/2023,05:51:45,0.010,0.0,0.001,0.001
01/09/2023,05:52:44,0.009,0.0,0.001,0.0
01/09/2023,05:53:44,0.009,0.0,0.001,0.0
01/09/2023,05:54:46,0.008,0.0,0.001,0.0
01/09/2023,05:55:46,0.008,0.0,0.001,0.0
01/09/2023,05:56:46,0.007,0.0,0.001,0.0
01/09/2023,05:57:45,0.008,0.0,0.001,0.0
01/09/2023,05:58:46,0.009,0.0,0.002,0.001
01/09/2023,05:59:46,0.009,0.0,0.002,0.0
01/09/2023,06:00:46,0.009,0.0,0.002,0.0
01/09/2023,06:01:46,0.009,0.0,0.002,0.0
01/09/2023,06:02:46,0.010,0.0,0.002,0.0
01/09/2023,06:03:45,0.010,0.0,0.002,0.0
01/09/2023,06:04:46,0.010,0.0,0.003,0.001
01/09/2023,06:05:45,0.011,0.0,0.003,0.0
01/09/2023,06:06:45,0.011,0.0,0.003,0.0
01/09/2023,06:07:46,0.011,0.0,0.003,0.0
01/09/2023,06:08:46,0.011,0.0,0.003,0.0
01/09/2023,06:09:46,0.011,0.0,0.003,0.0
01/09/2023,06:10:46,0.012,0.0,0.004,0.001
01/09/2023,06:11:46,0.013,0.0,0.004,0.0
01/09/2023,06:12:46,0.012,0.0,0.004,0.0
01/09/2023,06:13:46,0.013,0.0,0.004,0.0
01/09/2023,06:14:46,0.013,0.0,0.004,0.0
01/09/2023,06:15:46,0.013,0.0,0.005,0.001
01/09/2023,06:16:45,0.013,0.0,0.005,0.0
01/09/2023,06:17:46,0.013,0.0,0.005,0.0
01/09/2023,06:18:46,0.014,0.0,0.005,0.0
01/09/2023,06:19:44,0.015,0.0,0.006,0.001
01/09/2023,06:20:43,0.015,0.0,0.006,0.0
01/09/2023,06:22:08,0.016,0.0,0.006,0.0
01/09/2023,06:22:45,0.016,0.0,0.006,0.0
01/09/2023,06:23:46,0.017,0.0,0.007,0.001
01/09/2023,06:24:45,0.016,0.0,0.007,0.0
01/09/2023,06:25:46,0.017,0.0,0.007,0.0
01/09/2023,06:26:46,0.019,0.0,0.007,0.0
01/09/2023,06:27:46,0.020,0.0,0.008,0.001
01/09/2023,06:28:46,0.021,0.0,0.008,0.0
01/09/2023,06:29:46,0.022,0.0,0.008,0.0
01/09/2023,06:30:46,0.023,0.0,0.009,0.001
01/09/2023,06:31:46,0.024,0.0,0.009,0.0
01/09/2023,06:32:46,0.026,0.0,0.01,0.001
01/09/2023,06:33:45,0.027,0.0,0.01,0.0
01/09/2023,06:34:46,0.026,0.0,0.01,0.0
01/09/2023,06:35:46,0.030,0.0,0.011,0.001
01/09/2023,06:36:45,0.032,0.0,0.011,0.0
01/09/2023,06:37:46,0.034,0.0,0.012,0.001
01/09/2023,06:38:46,0.038,0.0,0.013,0.001
01/09/2023,06:39:46,0.040,0.0,0.013,0.0
01/09/2023,06:40:46,0.042,0.0,0.014,0.001
01/09/2023,06:41:46,0.043,0.0,0.015,0.001
01/09/2023,06:42:46,0.044,0.0,0.015,0.0
01/09/2023,06:43:46,0.046,0.0,0.016,0.001
01/09/2023,06:44:46,0.047,0.0,0.017,0.001
01/09/2023,06:45:46,0.048,0.0,0.018,0.001
01/09/2023,06:46:46,0.049,0.0,0.019,0.001
01/09/2023,06:47:46,0.050,0.0,0.019,0.0
01/09/2023,06:48:46,0.053,0.0,0.02,0.001
01/09/2023,06:49:46,0.054,0.0,0.021,0.001
01/09/2023,06:50:46,0.055,0.0,0.022,0.001
01/09/2023,06:51:46,0.057,0.0,0.023,0.001
01/09/2023,06:52:46,0.060,0.0,0.024,0.001
01/09/2023,06:53:46,0.061,0.0,0.025,0.001
01/09/2023,06:54:46,0.063,0.0,0.026,0.001
01/09/2023,06:55:46,0.065,0.0,0.027,0.001
01/09/2023,06:56:46,0.067,0.0,0.028,0.001
01/09/2023,06:57:46,0.066,0.0,0.029,0.001
01/09/2023,06:58:46,0.068,0.0,0.03,0.001
01/09/2023,06:59:46,0.065,0.0,0.031,0.001
01/09/2023,07:00:46,0.060,0.0,0.033,0.002
01/09/2023,07:01:46,0.056,0.0,0.034,0.001
01/09/2023,07:02:46,0.054,0.0,0.034,0.0
01/09/2023,07:03:46,0.051,0.0,0.035,0.001
01/09/2023,07:04:46,0.049,0.0,0.036,0.001
01/09/2023,07:05:46,0.049,0.0,0.037,0.001
01/09/2023,07:06:46,0.047,0.0,0.038,0.001
01/09/2023,07:07:46,0.046,0.0,0.039,0.001
01/09/2023,07:08:46,0.047,0.0,0.039,0.0
01/09/2023,07:09:46,0.048,0.0,0.04,0.001
01/09/2023,07:10:46,0.050,0.0,0.041,0.001
01/09/2023,07:11:46,0.051,0.0,0.042,0.001
01/09/2023,07:12:46,0.050,0.0,0.043,0.001
01/09/2023,07:13:46,0.051,0.0,0.043,0.0
01/09/2023,07:14:46,0.051,0.0,0.044,0.001
01/09/2023,07:15:46,0.056,0.0,0.045,0.001
01/09/2023,07:16:46,0.059,0.0,0.046,0.001
01/09/2023,07:17:46,0.063,0.0,0.047,0.001
01/09/2023,07:18:45,0.064,0.0,0.048,0.001
01/09/2023,07:19:46,0.066,0.0,0.049,0.001
01/09/2023,07:20:46,0.067,0.0,0.05,0.001
01/09/2023,07:21:46,0.066,0.0,0.052,0.002
01/09/2023,07:22:46,0.067,0.0,0.053,0.001
01/09/2023,07:23:46,0.064,0.0,0.054,0.001
01/09/2023,07:24:46,0.061,0.0,0.055,0.001
01/09/2023,07:25:46,0.064,0.0,0.056,0.001
01/09/2023,07:26:46,0.063,0.0,0.057,0.001
01/09/2023,07:27:46,0.063,0.0,0.058,0.001
01/09/2023,07:28:45,0.067,0.0,0.059,0.001
01/09/2023,07:29:46,0.069,0.0,0.06,0.001
01/09/2023,07:30:46,0.077,0.0,0.061,0.001
01/09/2023,07:31:45,0.079,0.0,0.063,0.002
01/09/2023,07:32:46,0.080,0.0,0.064,0.001
01/09/2023,07:33:46,0.083,0.0,0.065,0.001
01/09/2023,07:34:46,0.085,0.0,0.067,0.002
01/09/2023,07:35:46,0.086,0.0,0.068,0.001
01/09/2023,07:36:46,0.091,0.0,0.07,0.002
01/09/2023,07:37:46,0.097,0.0,0.071,0.001
01/09/2023,07:38:46,0.102,0.0,0.073,0.002
01/09/2023,07:39:46,0.105,0.0,0.075,0.002
01/09/2023,07:40:46,0.105,0.0,0.076,0.001
01/09/2023,07:41:46,0.104,0.0,0.078,0.002
01/09/2023,07:42:46,0.102,0.0,0.08,0.002
01/09/2023,07:43:44,0.102,0.0,0.081,0.001
01/09/2023,07:44:44,0.108,0.0,0.083,0.002
01/09/2023,07:45:46,0.109,0.0,0.085,0.002
01/09/2023,07:46:46,0.113,0.0,0.087,0.002
01/09/2023,07:47:44,0.122,0.0,0.089,0.002
01/09/2023,07:48:44,0.126,0.0,0.091,0.002
01/09/2023,07:49:46,0.132,0.0,0.093,0.002
01/09/2023,07:50:46,0.131,0.0,0.095,0.002
01/09/2023,07:51:46,0.123,0.0,0.097,0.002
01/09/2023,07:52:46,0.127,0.0,0.099,0.002
01/09/2023,07:53:46,0.131,0.0,0.102,0.003
01/09/2023,07:54:46,0.147,0.0,0.104,0.002
01/09/2023,07:55:46,0.188,0.0,0.107,0.003
01/09/2023,07:56:46,0.206,0.0,0.11,0.003
01/09/2023,07:57:46,0.215,0.0,0.113,0.003
01/09/2023,07:58:46,0.208,0.0,0.117,0.004
01/09/2023,07:59:46,0.196,0.0,0.12,0.003
01/09/2023,08:00:46,0.188,0.0,0.124,0.004
01/09/2023,08:01:46,0.171,0.0,0.127,0.003
01/09/2023,08:02:46,0.168,0.0,0.129,0.002
01/09/2023,08:03:46,0.191,0.0,0.132,0.003
01/09/2023,08:04:46,0.221,1.0,0.136,0.004
01/09/2023,08:05:46,0.210,0.0,0.139,0.003
01/09/2023,08:06:46,0.195,0.0,0.143,0.004
01/09/2023,08:07:46,0.182,0.0,0.146,0.003
01/09/2023,08:08:46,0.179,0.0,0.149,0.003
01/09/2023,08:09:46,0.209,0.0,0.152,0.003
01/09/2023,08:10:46,0.228,1.0,0.156,0.004
01/09/2023,08:11:46,0.228,1.0,0.16,0.004
01/09/2023,08:12:46,0.209,0.0,0.163,0.003
01/09/2023,08:13:46,0.197,0.0,0.167,0.004
01/09/2023,08:14:46,0.201,0.0,0.17,0.003
01/09/2023,08:15:46,0.202,0.0,0.173,0.003
01/09/2023,08:16:46,0.226,1.0,0.177,0.004
01/09/2023,08:17:46,0.254,1.0,0.181,0.004
01/09/2023,08:18:46,0.240,1.0,0.185,0.004
01/09/2023,08:19:46,0.216,0.0,0.189,0.004
01/09/2023,08:20:46,0.193,0.0,0.192,0.003
01/09/2023,08:21:46,0.178,0.0,0.195,0.003
01/09/2023,08:22:46,0.180,0.0,0.198,0.003
01/09/2023,08:23:46,0.176,0.0,0.201,0.003
01/09/2023,08:24:46,0.178,0.0,0.204,0.003
01/09/2023,08:25:46,0.191,0.0,0.207,0.003
01/09/2023,08:26:46,0.193,0.0,0.21,0.003
01/09/2023,08:27:46,0.195,0.0,0.214,0.004
01/09/2023,08:28:46,0.204,0.0,0.217,0.003
01/09/2023,08:29:46,0.217,0.0,0.22,0.003
01/09/2023,08:30:46,0.216,0.0,0.224,0.004
01/09/2023,08:31:46,0.193,0.0,0.227,0.003
01/09/2023,08:32:46,0.201,0.0,0.231,0.004
01/09/2023,08:33:46,0.211,0.0,0.234,0.003
01/09/2023,08:34:46,0.187,0.0,0.238,0.004
01/09/2023,08:35:46,0.172,0.0,0.24,0.002
01/09/2023,08:36:46,0.189,0.0,0.243,0.003
01/09/2023,08:37:46,0.225,1.0,0.247,0.004
01/09/2023,08:38:46,0.246,1.0,0.251,0.004
01/09/2023,08:39:46,0.245,1.0,0.255,0.004
01/09/2023,08:40:46,0.246,1.0,0.259,0.004
01/09/2023,08:41:46,0.241,1.0,0.263,0.004
01/09/2023,08:42:46,0.230,1.0,0.267,0.004
01/09/2023,08:43:46,0.237,1.0,0.271,0.004
01/09/2023,08:44:46,0.248,1.0,0.275,0.004
01/09/2023,08:45:46,0.265,1.0,0.279,0.004
01/09/2023,08:46:46,0.284,1.0,0.284,0.005
01/09/2023,08:47:46,0.329,1.0,0.289,0.005
01/09/2023,08:48:46,0.332,1.0,0.294,0.005
01/09/2023,08:49:46,0.311,1.0,0.3,0.006
01/09/2023,08:50:46,0.287,1.0,0.305,0.005
01/09/2023,08:51:46,0.295,1.0,0.31,0.005
01/09/2023,08:52:47,0.332,1.0,0.315,0.005
01/09/2023,08:53:46,0.336,1.0,0.32,0.005
01/09/2023,08:54:46,0.321,1.0,0.326,0.006
01/09/2023,08:55:47,0.301,1.0,0.331,0.005
01/09/2023,08:56:46,0.249,1.0,0.336,0.005
01/09/2023,08:57:46,0.228,1.0,0.34,0.004
01/09/2023,08:58:46,0.225,1.0,0.343,0.003
01/09/2023,08:59:46,0.248,1.0,0.347,0.004
01/09/2023,09:00:46,0.295,1.0,0.352,0.005
01/09/2023,09:01:46,0.374,1.0,0.357,0.005
01/09/2023,09:02:46,0.418,1.0,0.364,0.007
01/09/2023,09:03:46,0.442,1.0,0.371,0.007
01/09/2023,09:04:46,0.448,1.0,0.379,0.008
01/09/2023,09:05:46,0.455,1.0,0.386,0.007
01/09/2023,09:06:46,0.446,1.0,0.394,0.008
01/09/2023,09:07:46,0.428,1.0,0.401,0.007
01/09/2023,09:08:46,0.413,1.0,0.408,0.007
01/09/2023,09:09:46,0.391,1.0,0.415,0.007
01/09/2023,09:10:46,0.355,1.0,0.421,0.006
01/09/2023,09:11:46,0.321,1.0,0.426,0.005
01/09/2023,09:12:46,0.336,1.0,0.432,0.006
01/09/2023,09:13:46,0.371,1.0,0.438,0.006
01/09/2023,09:14:46,0.397,1.0,0.444,0.006
01/09/2023,09:15:46,0.427,1.0,0.451,0.007
01/09/2023,09:16:46,0.459,1.0,0.458,0.007
01/09/2023,09:17:46,0.456,1.0,0.466,0.008
01/09/2023,09:18:46,0.431,1.0,0.474,0.008
01/09/2023,09:19:46,0.423,1.0,0.481,0.007
01/09/2023,09:20:46,0.444,1.0,0.488,0.007
01/09/2023,09:21:46,0.470,1.0,0.495,0.007
01/09/2023,09:22:46,0.485,1.0,0.503,0.008
01/09/2023,09:23:46,0.481,1.0,0.511,0.008
01/09/2023,09:24:46,0.462,1.0,0.519,0.008
01/09/2023,09:25:46,0.485,1.0,0.527,0.008
01/09/2023,09:26:46,0.505,1.0,0.535,0.008
01/09/2023,09:27:50,0.523,1.0,0.545,0.01
01/09/2023,09:28:45,0.530,1.0,0.553,0.008
01/09/2023,09:29:44,0.544,1.0,0.561,0.008
01/09/2023,09:30:46,0.549,1.0,0.571,0.01
01/09/2023,09:31:47,0.533,1.0,0.58,0.009
01/09/2023,09:32:46,0.517,1.0,0.589,0.009
01/09/2023,09:33:46,0.507,1.0,0.597,0.008
01/09/2023,09:34:45,0.528,1.0,0.605,0.008
01/09/2023,09:35:44,0.550,1.0,0.615,0.01
01/09/2023,09:36:46,0.524,1.0,0.624,0.009
01/09/2023,09:37:47,0.493,1.0,0.632,0.008
01/09/2023,09:38:46,0.503,1.0,0.641,0.009
01/09/2023,09:39:46,0.502,1.0,0.649,0.008
01/09/2023,09:40:46,0.515,1.0,0.657,0.008
01/09/2023,09:41:46,0.522,1.0,0.666,0.009
01/09/2023,09:42:47,0.524,1.0,0.675,0.009
01/09/2023,09:43:46,0.542,1.0,0.684,0.009
01/09/2023,09:44:46,0.568,1.0,0.693,0.009
01/09/2023,09:45:46,0.596,1.0,0.703,0.01
01/09/2023,09:46:46,0.616,1.0,0.713,0.01
01/09/2023,09:47:46,0.625,1.0,0.723,0.01
01/09/2023,09:48:47,0.622,1.0,0.733,0.01
01/09/2023,09:49:46,0.611,1.0,0.744,0.011
01/09/2023,09:50:46,0.608,1.0,0.754,0.01
01/09/2023,09:51:46,0.612,1.0,0.764,0.01
01/09/2023,09:52:46,0.611,1.0,0.774,0.01
01/09/2023,09:53:46,0.602,1.0,0.784,0.01
01/09/2023,09:54:46,0.597,1.0,0.794,0.01
01/09/2023,09:55:46,0.600,1.0,0.804,0.01
01/09/2023,09:56:47,0.618,1.0,0.814,0.01
01/09/2023,09:57:46,0.625,1.0,0.825,0.011
01/09/2023,09:58:46,0.610,1.0,0.835,0.01
01/09/2023,09:59:46,0.605,1.0,0.845,0.01
01/09/2023,10:00:46,0.612,1.0,0.855,0.01
01/09/2023,10:01:46,0.628,1.0,0.866,0.011
01/09/2023,10:02:46,0.657,2.0,0.876,0.01
01/09/2023,10:03:46,0.650,1.0,0.887,0.011
01/09/2023,10:04:46,0.597,1.0,0.898,0.011